Theta_e
325 326 327 327 327 326 326 326 326 327 327 328 329 330 330 330 329 317 308 314 322 340 341 326 322 312 311 310 312 311 297 294 297 297 299 304 302 307 311 308 314 318 319 326 328
325 326 326 325 325 326 325 325 326 326 327 328 329 330 329 329 319 309 324 336 335 341 321 313 311 311 303 304 306 302 296 298 302 299 298 302 301 301 301 300 303 308 327 327 328
325 325 325 325 325 324 325 325 326 327 327 328 329 329 328 327 312 310 334 335 337 338 322 317 313 310 303 303 301 299 295 301 302 305 305 303 303 305 301 298 301 301 311 324 323
324 324 324 324 324 324 324 325 326 327 328 329 329 329 328 321 299 314 337 337 337 330 319 312 309 305 302 301 305 297 302 303 304 307 306 302 305 302 303 303 306 306 304 313 327
323 323 323 323 323 323 323 325 326 326 327 328 328 328 322 311 308 319 338 333 325 318 314 311 305 303 299 301 303 299 302 305 306 306 305 306 303 303 303 306 308 308 307 303 303
323 323 323 323 322 322 323 324 325 326 328 327 327 326 316 305 315 318 321 317 318 316 313 311 307 308 303 302 300 303 303 303 305 305 305 303 303 303 304 307 306 306 304 303 303
322 322 322 323 323 323 322 324 324 327 327 327 327 324 314 311 315 315 318 315 317 318 314 314 312 307 306 302 307 305 299 302 303 304 303 304 300 300 305 306 305 304 304 305 306
322 321 322 323 323 322 322 323 325 327 326 326 327 318 307 316 315 316 317 315 318 317 317 316 314 311 306 306 304 300 298 292 301 303 304 302 293 302 305 304 303 303 303 306 308
321 321 321 322 322 322 322 323 324 328 328 327 317 311 305 319 312 315 315 313 314 315 315 317 312 306 306 298 291 293 287 291 295 303 302 299 294 301 304 304 302 302 303 305 307
321 321 322 322 322 322 321 322 323 322 321 324 322 304 309 306 313 314 313 315 311 311 311 308 304 299 297 291 284 288 288 291 290 299 300 298 295 300 303 303 301 301 302 304 306
322 321 321 321 321 321 315 310 305 304 308 305 305 304 307 310 314 311 313 311 311 306 297 303 294 290 292 294 295 293 291 290 295 301 298 296 296 299 302 302 301 301 301 303 305
323 321 320 321 320 319 313 306 307 308 303 310 309 308 311 310 305 309 312 303 301 295 298 293 290 295 298 298 296 294 291 291 297 302 297 296 296 299 301 300 301 301 301 304 306
323 321 320 320 319 312 309 309 312 313 302 307 308 307 309 309 304 305 307 302 298 295 295 289 295 300 298 295 294 292 291 291 294 299 299 296 292 295 299 301 302 302 304 305 305
322 320 320 320 311 309 308 315 314 314 294 299 303 307 310 309 303 309 308 304 299 296 296 293 298 297 295 294 294 289 297 297 296 294 287 294 283 291 295 297 299 300 303 305 305
321 319 318 319 305 307 310 315 314 310 283 302 304 311 308 303 305 305 308 303 298 296 293 291 294 293 293 294 296 292 298 296 296 293 290 290 284 289 294 293 296 301 304 304 306
321 319 318 311 309 310 313 314 311 294 286 299 303 300 299 302 302 305 303 305 303 297 296 294 298 297 294 297 298 299 297 297 296 292 284 288 287 285 290 293 296 302 303 304 306
320 319 316 315 301 311 314 309 289 287 301 297 297 300 297 297 298 298 297 295 291 287 287 293 294 297 299 293 298 295 289 279 280 280 280 292 287 288 295 298 300 301 302 304 306
319 318 315 313 308 307 308 299 288 296 296 302 300 298 294 297 295 297 295 293 295 292 288 286 285 293 295 294 291 291 290 279 271 275 280 292 282 290 298 302 302 304 303 304 305
317 309 308 307 311 306 300 290 291 296 300 297 297 291 292 295 294 294 292 293 293 292 287 286 288 294 295 296 295 291 287 294 285 287 281 285 290 296 298 299 300 300 302 302 303
307 302 301 306 305 303 294 293 296 302 301 298 291 293 290 292 291 291 291 295 295 296 294 290 284 292 295 296 297 292 295 286 287 275 277 282 282 284 292 295 298 297 300 302 303
306 298 303 306 305 296 289 292 298 302 302 297 294 293 293 292 292 291 292 295 298 296 295 291 287 288 291 290 289 291 289 289 288 287 280 278 282 290 293 297 296 297 300 301 303
304 291 303 308 294 291 290 293 301 300 301 299 297 297 294 293 292 291 292 295 298 296 292 292 288 284 287 292 294 291 288 287 282 282 284 282 283 297 296 297 298 298 298 301 303
299 297 304 303 287 287 288 293 297 299 298 298 296 298 297 294 291 293 293 298 297 295 293 293 287 282 283 288 291 288 291 289 287 285 283 278 282 296 297 297 298 297 297 300 302
299 289 297 301 297 288 287 289 290 298 299 299 297 297 295 293 294 292 291 296 296 298 304 298 289 286 283 286 288 285 289 288 285 279 282 282 285 292 295 296 297 296 297 300 299
300 290 297 290 293 294 290 289 289 290 298 298 294 295 294 290 290 290 292 292 295 302 294 292 286 289 290 291 289 288 289 289 285 284 281 285 286 291 295 297 297 297 298 299 299
296 295 298 294 293 293 293 289 289 292 295 295 294 296 295 291 292 290 292 290 289 293 291 291 285 287 286 290 289 287 289 289 288 287 285 286 287 293 296 298 297 297 298 297 297
304 305 300 293 291 290 289 290 292 294 297 300 297 295 294 295 297 296 296 295 294 290 290 288 287 285 282 288 288 285 288 289 290 290 288 285 290 295 297 299 299 299 300 298 297
Wind_Speed
13 13 13 14 15 15 15 15 14 14 14 15 13 14 14 14 14 2 2 1 3 8 8 5 5 3 2 2 1 4 4 3 4 7 7 8 11 8 6 5 4 0 3 3 5
12 14 14 15 15 15 14 15 14 14 14 14 12 13 13 12 3 3 3 2 4 8 6 4 3 2 0 1 0 4 3 5 1 4 4 8 8 9 9 9 6 4 8 6 1
13 14 15 15 17 16 14 15 15 15 14 13 11 11 11 8 2 3 6 4 6 6 5 8 6 2 1 2 2 3 4 5 9 4 6 7 10 8 8 8 6 8 4 6 3
13 14 15 16 17 17 16 15 15 15 14 13 10 9 9 2 2 4 7 7 8 7 4 8 8 2 2 3 2 2 7 7 5 4 4 5 6 7 7 10 8 9 6 8 10
13 13 15 16 17 19 17 15 15 15 14 13 10 7 1 1 4 6 8 9 5 5 4 3 5 4 2 4 6 3 4 6 8 8 6 5 6 6 9 11 10 10 8 8 4
15 15 15 17 18 19 18 17 16 14 13 12 8 4 1 1 5 9 7 3 2 4 6 5 2 4 4 4 2 4 5 8 8 10 3 0 5 3 13 9 7 3 7 9 8
15 16 17 17 17 18 18 17 14 11 9 8 6 3 2 7 5 8 7 4 4 1 2 3 3 4 5 5 5 4 7 8 9 5 4 5 7 5 7 11 9 8 8 9 9
13 15 17 17 18 19 18 16 12 9 6 4 3 2 4 2 4 3 5 3 5 4 3 1 1 1 3 4 6 3 2 5 6 6 4 6 5 5 8 10 11 11 10 13 14
12 14 16 17 18 19 19 17 12 9 5 2 1 2 5 2 2 5 4 1 3 4 3 4 1 3 3 1 5 5 4 7 7 4 3 3 3 5 9 12 13 13 14 13 14
14 12 14 15 17 18 20 9 8 9 4 5 7 3 4 4 4 2 3 5 4 2 1 1 1 1 4 5 2 6 5 6 6 4 3 4 3 8 9 11 8 9 12 11 13
13 13 14 16 17 16 11 5 4 3 2 7 4 4 4 2 3 5 5 3 4 1 4 4 3 1 1 1 6 6 4 6 5 2 2 2 5 6 6 10 11 9 9 14 13
12 15 15 16 17 15 1 0 2 2 6 10 6 3 3 4 2 4 4 1 2 5 6 6 2 4 3 5 4 4 4 5 6 8 2 5 4 5 7 4 4 6 9 11 16
10 13 17 19 21 5 4 2 1 3 2 5 6 5 4 5 2 2 2 2 4 4 3 4 2 2 2 5 5 3 2 3 4 8 4 4 1 2 1 3 5 6 6 7 9
10 10 14 21 4 5 1 1 0 1 2 4 6 5 5 4 2 3 2 2 3 4 1 3 3 0 4 2 3 3 3 2 6 6 2 2 4 3 5 5 4 5 7 11 11
10 10 10 3 9 3 1 1 1 4 2 5 5 1 5 6 5 2 2 2 2 4 5 5 2 2 2 2 2 8 7 8 4 3 3 7 5 5 5 9 11 11 13 12 12
9 7 11 4 3 7 1 3 4 5 8 6 5 6 5 4 3 6 3 1 3 2 3 7 2 3 2 6 3 8 6 6 4 2 2 5 4 5 4 6 7 11 12 13 12
10 6 2 5 4 3 3 4 4 4 2 6 6 7 7 6 4 5 4 3 3 3 1 1 3 2 2 3 6 10 7 5 6 5 5 3 4 6 5 4 4 11 11 11 12
10 6 4 8 5 7 3 4 5 8 7 4 6 7 7 6 3 6 2 3 1 2 2 3 3 5 1 3 2 3 5 6 5 0 6 6 3 5 4 5 2 8 10 11 13
6 2 4 5 11 2 4 4 10 7 6 9 6 4 4 2 4 4 6 5 4 3 3 2 2 1 2 1 3 3 4 4 4 2 3 3 3 1 4 3 7 10 11 11 11
4 4 6 7 8 4 3 9 7 5 7 3 9 7 9 8 6 7 7 2 5 3 3 2 1 4 2 0 2 3 5 2 3 3 4 3 2 4 4 5 5 8 11 10 10
3 4 6 13 7 3 8 8 11 11 3 7 8 6 6 9 9 6 6 2 5 5 1 2 4 5 4 3 4 1 1 1 3 5 3 2 5 4 3 3 3 6 8 9 9
3 5 4 14 7 5 10 8 12 8 2 2 3 5 7 8 8 7 6 4 6 8 4 2 4 2 2 2 2 2 2 3 6 4 2 4 6 5 7 6 2 7 5 6 8
3 5 3 6 12 11 5 14 10 5 7 7 7 4 3 8 6 5 5 2 7 4 6 4 2 2 5 5 3 1 4 4 3 3 4 4 6 5 7 7 3 6 5 5 8
5 3 4 5 7 12 14 14 20 7 7 6 6 4 5 5 4 7 4 3 4 3 5 4 2 6 7 5 4 3 4 5 6 3 3 5 5 6 7 9 7 4 4 6 7
4 6 7 10 14 14 4 10 16 15 7 9 5 8 9 6 4 5 4 3 2 5 4 5 4 4 6 7 4 5 6 6 7 7 4 6 2 9 12 12 11 8 5 6 7
5 5 4 10 17 20 14 6 21 15 14 10 6 10 9 10 10 11 10 6 7 3 7 3 3 2 5 6 7 7 9 9 8 7 7 7 8 6 7 7 8 10 9 7 7
1 1 2 9 9 17 24 21 14 10 7 15 10 9 11 7 8 7 6 10 12 11 8 7 4 2 5 5 4 7 9 11 7 5 9 7 8 7 8 12 12 11 12 11 10
Wind_Direction
344 342 342 342 334 330 333 324 321 321 320 316 322 319 331 339 315 84 43 201 314 309 317 259 308 250 27 299 86 10 48 284 284 355 308 335 2 350 314 46 300 151 200 210 209
349 347 342 341 327 329 326 321 319 317 315 309 315 316 334 338 354 51 195 183 288 307 352 341 1 322 345 156 260 103 120 254 352 321 327 338 356 328 359 341 337 18 66 118 125
351 347 338 332 332 328 322 323 327 316 303 301 308 316 327 329 22 204 195 215 263 276 243 263 247 237 325 156 201 189 198 264 296 313 0 338 333 330 351 331 305 309 140 193 190
347 345 337 333 328 327 330 330 321 305 299 299 307 313 321 340 145 200 193 224 254 283 294 356 348 81 320 324 262 188 242 246 276 316 308 285 280 300 287 272 270 283 269 174 190
338 341 334 333 333 334 326 323 313 301 300 290 293 315 279 110 244 185 200 237 273 296 353 3 44 32 5 288 336 245 277 304 302 294 262 261 263 256 270 268 274 288 313 320 285
334 336 334 333 333 327 328 315 307 304 292 280 277 284 61 266 160 165 201 223 273 350 343 27 29 306 272 272 266 262 302 278 270 270 261 52 292 19 287 253 292 268 292 298 290
332 331 333 331 328 327 324 309 314 307 293 274 246 247 256 238 164 173 167 205 169 157 328 3 11 33 338 305 267 278 314 319 261 218 160 118 339 332 329 32 24 7 340 333 330
328 329 329 328 324 330 320 318 312 314 328 267 229 267 244 151 163 163 201 231 196 195 176 253 45 267 210 295 325 321 55 315 289 157 202 92 269 353 19 38 9 12 1 357 345
320 325 326 323 325 327 324 317 297 296 277 240 261 205 268 88 200 203 163 296 291 188 197 232 97 211 339 271 4 22 280 320 327 55 145 117 289 321 28 35 20 6 3 347 347
313 316 317 317 323 330 322 289 283 315 207 211 261 330 246 187 159 174 177 168 236 318 231 189 178 42 13 61 283 284 310 294 291 245 43 0 79 53 44 53 18 359 344 340 335
305 310 314 316 321 333 345 4 13 343 243 194 218 219 123 74 108 214 186 212 200 159 229 201 91 238 240 250 243 266 264 297 310 261 41 266 114 85 58 43 16 349 337 328 329
303 309 313 314 314 320 245 15 137 209 311 230 243 243 165 135 277 240 171 309 66 259 313 11 226 201 233 282 301 1 37 323 303 316 201 270 136 115 86 74 8 330 325 325 326
295 310 314 316 313 297 211 136 192 15 240 245 189 195 176 144 251 146 94 341 236 262 320 165 228 231 345 357 4 2 133 315 273 313 294 140 165 48 77 71 355 315 297 310 315
288 302 317 325 300 327 66 62 327 66 41 236 190 236 138 126 306 131 135 135 312 236 25 251 206 71 346 261 61 316 245 320 299 8 261 97 279 13 313 285 285 339 334 336 330
279 298 313 16 299 317 235 334 312 61 332 170 156 161 141 152 153 220 137 141 233 292 77 261 94 12 291 241 331 246 275 269 216 244 360 324 72 256 302 325 332 346 344 341 333
256 287 328 348 207 262 345 26 56 56 251 183 136 172 139 210 202 157 189 106 251 310 211 222 147 172 234 289 231 267 336 23 77 93 19 271 122 290 324 275 321 350 352 342 336
241 249 282 311 229 311 349 62 68 176 186 184 180 160 191 182 187 167 183 182 134 50 320 105 194 183 205 344 335 25 37 355 15 14 227 353 44 242 305 26 2 353 353 351 0
224 245 220 240 262 308 43 62 188 220 196 180 137 144 176 145 214 174 184 170 212 132 243 146 269 170 302 138 229 292 110 143 184 269 274 341 357 302 68 116 100 16 14 15 13
169 224 240 219 232 188 95 179 203 213 168 142 101 142 211 143 144 151 206 150 155 110 173 68 276 315 160 168 119 326 63 156 111 319 37 248 16 3 65 90 46 21 26 22 18
173 186 233 196 165 101 139 227 224 235 128 110 166 163 176 176 155 172 172 174 140 121 105 205 349 209 195 56 288 116 170 84 16 49 329 316 198 254 3 5 33 32 26 20 19
155 184 236 175 103 116 212 215 236 266 284 153 198 168 175 168 177 191 183 283 136 162 139 190 110 301 79 202 192 68 0 219 133 134 174 294 272 193 121 134 33 85 57 40 33
193 205 231 145 160 199 213 205 224 246 132 193 137 167 163 156 174 185 166 158 153 149 170 218 142 222 250 327 29 113 147 123 116 267 226 163 272 151 131 155 117 93 79 81 69
175 274 295 141 200 213 203 222 240 221 183 182 210 188 133 152 151 159 115 134 125 131 165 179 225 66 348 344 344 256 211 155 133 91 232 133 262 177 125 134 141 109 113 114 104
132 182 294 227 228 204 200 208 217 210 207 165 187 130 107 138 86 166 123 178 149 101 131 88 215 181 185 188 184 213 190 185 146 134 257 216 172 185 172 153 147 153 134 122 112
180 202 185 208 221 224 232 211 207 210 205 175 219 166 151 143 102 144 115 103 85 140 143 126 212 219 246 240 224 215 230 217 199 200 181 218 174 204 190 172 166 163 169 148 143
181 181 222 244 207 194 218 245 211 199 165 198 155 172 169 160 177 182 136 168 185 174 161 177 247 272 288 262 221 243 233 224 218 215 238 250 280 226 159 139 144 166 165 160 149
24 228 138 228 227 190 208 212 234 207 224 185 157 166 199 196 154 183 143 158 156 145 179 154 170 110 260 21 323 299 223 198 197 200 194 210 218 153 157 166 171 175 170 169 164